Location: Stockholm
(59.3333°N, 18.0500°E)
Time: 12:22:42
(UTC+02:00)

ISS - Pass Details

Date: 21 May 2020
Orbit: 417 x 420 km, 51.6° (Epoch: 02 July)

Event Time Altitude Azimuth Distance (km) Brightness Sun altitude
Rises 23:46:17 0° 259° (W) 2,376 0.1 -9.4°
Reaches altitude 10° 23:48:47 10° 241° (WSW) 1,511 -1.1 -9.4°
Maximum altitude 23:51:15 19° 194° (SSW) 1,075 -2.2 -9.5°
Enters shadow 23:52:55 14° 158° (SSE) 1,287 -1.9 -9.5°
